Theta_e
313 312 313 314 314 314 315 316 317 317 317 317 317 317 317 317 319 315 307 310 313 322 322 313 312 309 310 311 313 316 306 304 307 308 310 313 310 314 316 313 316 319 317 325 334
313 312 312 313 313 314 314 315 315 316 316 317 317 317 317 317 313 308 318 317 321 325 310 308 308 305 305 306 308 308 304 307 313 314 312 312 312 311 311 311 312 316 323 332 330
312 312 312 312 312 313 313 314 314 315 316 316 317 317 317 317 306 304 318 318 322 318 312 309 306 304 302 306 304 306 304 310 310 313 314 312 312 313 310 309 311 312 319 329 327
311 311 311 312 312 312 312 313 313 314 315 316 318 316 315 313 291 310 314 314 320 317 313 305 301 303 301 301 305 301 306 306 309 313 312 310 313 310 312 314 317 317 321 326 325
310 310 311 311 311 311 311 312 312 313 314 315 316 314 307 300 300 309 314 313 315 313 310 302 299 300 298 303 304 301 304 305 308 310 311 311 310 310 311 316 319 319 323 325 327
310 310 310 310 310 310 311 311 311 312 313 315 316 313 307 294 306 309 310 310 310 309 308 305 300 301 299 301 301 304 303 304 308 309 309 308 310 310 313 317 318 319 322 325 326
311 311 311 311 311 311 311 311 312 312 313 315 316 313 305 300 309 312 311 313 311 309 304 306 305 303 304 300 306 304 300 303 305 307 306 309 306 306 314 316 316 319 321 324 325
311 311 311 311 311 311 311 312 312 313 314 316 315 313 300 310 314 311 309 307 311 312 309 309 309 307 304 308 304 300 299 295 302 305 305 305 300 310 313 314 314 318 321 323 324
310 310 310 310 310 311 312 312 312 313 315 315 311 307 299 313 306 311 308 304 309 311 312 312 310 305 302 299 297 299 292 294 297 304 303 302 300 307 310 312 313 316 319 321 323
310 310 310 310 310 311 312 312 312 312 310 313 311 301 305 300 306 309 308 311 306 309 307 305 301 297 296 294 288 293 293 295 295 300 301 299 299 302 304 308 312 315 317 319 321
309 310 310 310 310 310 309 307 301 301 303 296 297 298 301 305 309 303 308 308 305 304 295 299 292 287 293 295 295 294 296 294 296 299 299 298 298 300 303 303 308 312 315 317 319
309 309 309 309 309 309 308 299 298 300 292 300 301 301 304 307 300 301 309 300 297 292 295 295 290 295 296 297 295 294 292 293 294 297 298 299 298 302 304 304 305 308 311 313 314
308 309 309 309 307 306 302 300 305 305 293 295 299 301 302 305 298 299 305 301 295 292 291 289 290 297 294 292 291 292 291 290 291 294 295 294 295 298 303 304 306 307 308 309 310
309 308 308 308 301 302 299 304 307 307 289 289 295 299 303 303 296 305 306 301 296 291 293 291 294 293 292 290 292 288 295 294 293 291 286 292 286 294 298 298 300 303 305 307 308
309 308 308 305 302 298 301 305 307 303 278 290 293 305 302 297 298 299 306 301 292 292 293 288 291 292 290 290 294 290 295 293 292 291 289 289 285 291 292 292 295 297 298 300 301
308 307 306 303 303 303 305 305 302 285 276 286 293 292 293 296 296 299 299 303 301 293 292 292 297 294 292 294 295 297 293 292 293 290 284 288 287 288 291 291 292 294 297 299 299
307 306 304 304 298 305 305 299 284 280 286 285 286 290 290 289 293 295 293 292 290 286 286 289 291 295 296 292 295 294 290 283 281 281 281 286 285 289 294 295 294 294 295 297 300
307 305 304 303 306 304 301 289 278 278 281 289 288 289 286 289 290 291 289 289 293 292 289 285 282 291 295 292 290 290 289 283 277 279 283 285 283 289 295 295 294 295 296 297 299
304 304 302 303 304 302 293 282 281 282 286 285 288 284 285 289 289 289 289 289 291 293 286 285 284 293 294 295 294 290 286 292 284 283 282 286 289 293 296 293 294 294 295 297 299
302 299 298 303 303 299 288 282 282 287 287 287 283 286 282 286 286 288 287 289 289 293 296 290 284 291 293 295 295 292 294 284 284 278 277 283 285 286 291 291 293 294 295 297 298
299 292 299 303 301 292 284 282 282 287 288 285 281 284 284 284 286 286 286 288 291 290 294 292 288 287 292 289 288 289 288 288 288 285 279 278 283 292 291 292 293 296 296 297 298
296 285 299 301 287 284 283 281 282 286 289 288 288 286 285 286 285 285 284 287 293 291 287 288 288 284 287 292 294 291 290 289 283 281 284 282 283 294 293 293 295 296 296 298 299
290 290 301 299 283 283 282 281 283 284 287 287 286 288 289 286 283 286 287 292 294 292 289 290 285 282 282 288 292 289 290 290 289 287 282 280 284 294 294 294 297 296 297 298 299
291 284 289 293 289 285 282 282 281 285 285 286 287 289 287 284 287 285 285 289 292 292 293 293 286 283 280 282 286 285 288 290 288 283 283 284 286 291 293 294 296 297 298 298 299
290 285 286 283 283 286 285 282 280 280 284 285 284 285 284 280 283 283 286 286 290 291 292 290 283 284 286 286 287 285 285 287 287 287 283 286 287 291 294 295 296 297 297 296 297
286 285 288 286 287 285 284 282 281 282 283 282 282 285 286 282 283 282 285 285 284 290 289 289 282 282 280 284 284 282 284 286 286 286 287 287 287 294 296 296 295 295 297 297 297
295 293 292 286 285 283 284 284 283 285 285 286 286 285 284 286 289 289 290 289 289 287 286 286 282 280 277 281 281 278 282 284 285 287 287 283 288 292 292 293 294 295 296 297 298
Wind_Speed
12 12 11 12 13 14 15 16 17 17 17 17 17 15 17 17 13 12 12 8 10 16 11 12 13 4 2 5 9 6 11 14 16 15 8 9 12 7 2 3 7 6 3 6 19
11 12 12 12 13 14 15 16 17 17 18 18 19 17 17 19 10 11 4 8 12 17 12 6 7 7 2 2 5 10 12 18 13 10 8 12 13 11 8 10 9 8 6 14 15
10 11 13 13 13 14 15 16 17 17 17 19 20 13 19 12 8 7 5 4 12 7 8 3 10 2 2 3 9 10 14 16 3 6 3 10 12 10 11 12 10 13 14 15 14
10 10 12 14 14 14 15 16 18 18 18 19 19 12 9 6 3 5 2 1 9 8 5 2 6 4 2 10 9 9 14 3 1 2 3 8 9 11 12 5 1 6 16 16 16
11 11 11 13 15 16 17 17 18 18 17 17 16 6 5 2 5 5 3 5 3 4 5 2 3 6 5 7 9 14 11 7 2 3 3 1 8 10 13 7 4 7 14 15 16
11 12 12 14 15 17 18 19 18 19 18 16 11 2 6 7 1 3 5 1 2 4 2 5 3 5 8 9 6 1 14 7 5 5 2 3 4 2 11 10 7 10 12 13 15
11 13 14 14 16 18 20 20 20 19 18 14 8 8 9 4 7 10 3 7 4 3 3 4 3 4 13 8 5 6 9 8 8 8 4 3 6 10 4 9 11 10 11 11 14
10 12 15 15 16 19 22 22 21 19 13 11 4 9 3 1 8 9 3 8 5 10 5 5 8 6 7 13 5 11 9 10 12 9 6 6 11 13 6 9 11 11 11 12 14
9 12 15 16 17 20 23 23 17 9 7 1 5 4 1 3 5 10 4 4 7 7 7 7 4 4 8 12 8 10 11 16 8 8 5 10 9 9 4 8 11 11 10 11 12
8 12 15 16 17 19 23 18 5 6 4 5 6 6 2 5 3 8 2 4 6 12 8 5 6 3 2 9 3 9 12 8 11 5 6 10 13 5 5 7 10 10 10 11 11
8 11 15 17 17 18 16 5 4 4 7 5 10 6 7 12 2 5 3 4 3 7 2 8 5 4 6 9 9 11 5 7 5 6 4 12 14 14 8 6 9 10 11 10 10
7 10 14 16 17 12 7 5 3 4 6 5 7 4 5 8 3 6 9 5 7 6 3 4 7 9 1 5 9 9 4 1 3 4 3 4 13 13 12 10 10 11 11 10 9
5 9 11 14 12 2 7 7 4 3 5 4 3 5 5 8 4 5 7 3 5 8 6 5 2 14 9 2 6 8 7 7 5 2 1 6 11 14 12 13 12 10 10 8 8
4 6 10 15 5 3 2 8 6 4 3 9 5 5 6 5 2 5 5 5 2 5 8 8 3 8 8 4 3 4 10 8 5 5 1 2 4 3 7 7 9 11 11 11 9
4 3 6 7 5 1 6 8 5 4 2 9 5 6 9 4 5 3 4 2 3 5 4 3 4 9 10 6 15 6 7 8 5 4 5 6 5 3 3 3 7 2 3 5 6
2 1 4 2 2 4 8 7 4 3 1 4 5 8 7 7 2 2 2 2 3 1 1 4 2 1 1 3 11 7 7 2 6 3 5 10 5 7 1 4 5 4 5 4 4
1 4 1 1 3 8 7 4 2 2 1 5 4 6 3 5 4 3 3 2 2 3 6 4 3 1 2 7 5 8 8 1 3 3 5 3 4 11 10 6 4 7 6 6 2
4 2 4 3 5 7 4 2 4 2 3 4 3 4 2 5 4 6 1 2 3 7 2 5 6 5 4 2 3 9 8 3 3 3 1 3 7 2 2 3 5 6 7 6 2
5 1 2 4 5 3 2 2 1 3 2 4 4 2 2 2 2 2 4 5 4 4 4 2 2 2 1 2 3 4 6 6 4 1 3 5 6 6 6 4 2 3 5 5 2
2 2 2 5 5 2 1 2 1 1 1 2 2 3 3 4 2 4 5 4 5 7 7 4 2 1 3 1 2 3 9 4 3 4 5 6 5 8 3 6 8 10 8 4 2
1 2 3 4 3 2 1 2 2 3 1 1 0 4 3 4 3 4 6 2 4 5 8 4 2 3 3 7 6 3 4 2 5 3 3 4 3 7 8 6 8 10 7 5 2
2 2 3 3 2 1 3 2 2 2 2 2 2 2 3 5 3 4 3 4 4 3 2 2 3 2 3 4 4 6 8 9 5 5 6 4 6 9 6 5 7 12 8 5 4
2 1 2 3 3 3 3 1 2 3 3 2 2 3 1 3 1 4 3 2 4 5 2 1 1 3 2 2 3 6 7 3 2 2 6 3 4 3 6 2 6 10 7 6 4
3 3 1 1 1 3 4 3 3 2 1 2 1 2 2 0 1 1 2 2 3 4 2 3 2 3 5 5 3 2 5 7 11 5 7 15 14 14 17 15 15 13 12 6 5
1 1 1 5 4 3 5 6 4 4 2 2 3 8 4 2 2 2 1 1 3 2 1 4 2 3 5 4 3 4 5 5 7 12 8 9 16 14 16 16 16 15 12 9 9
5 4 1 2 6 7 5 5 6 3 6 3 3 2 7 5 3 4 2 1 2 2 2 3 1 1 1 3 4 8 11 11 12 13 15 17 24 14 14 7 12 12 13 12 11
2 0 2 8 7 7 5 5 9 6 6 2 6 5 5 6 7 6 5 6 5 4 1 3 2 1 0 5 5 5 10 13 11 11 14 16 18 12 14 12 12 12 11 13 12
Wind_Direction
4 0 358 356 350 343 341 337 338 339 336 331 314 305 307 308 292 255 269 282 303 326 311 301 263 316 244 236 239 255 235 231 222 222 221 151 186 191 87 155 200 175 340 45 130
360 352 354 353 350 346 340 335 332 333 334 329 324 298 301 293 254 268 248 295 301 294 274 260 289 344 251 225 255 230 224 229 228 219 239 179 199 162 183 195 192 184 112 120 147
354 350 347 349 349 344 340 336 330 330 330 326 322 305 297 258 226 233 91 346 354 289 268 283 292 302 256 120 241 225 238 230 228 274 272 187 202 175 208 192 197 198 168 148 164
348 346 341 339 340 340 336 336 330 328 325 327 329 339 331 228 273 61 335 0 348 305 275 140 276 243 165 226 223 268 236 282 303 174 186 202 205 200 216 95 280 165 152 161 176
342 337 337 334 334 333 330 328 327 325 322 324 333 7 336 59 292 76 265 45 332 321 298 120 110 312 244 243 157 264 261 230 202 201 241 28 225 214 213 141 133 142 144 170 178
336 332 333 333 334 330 327 324 323 318 315 316 328 264 273 251 6 307 335 73 343 42 215 67 63 322 302 273 242 52 262 226 193 176 165 237 207 259 211 169 164 162 169 173 184
324 322 326 331 332 327 322 322 319 314 306 301 304 268 265 307 308 318 260 197 195 100 101 96 321 332 343 279 225 302 262 221 207 187 159 230 213 227 134 179 177 175 174 176 184
324 320 322 328 331 326 321 321 317 310 300 300 276 261 299 338 310 285 286 178 157 85 95 58 324 7 273 306 213 213 268 215 185 185 148 197 229 201 157 197 201 183 177 177 186
329 322 324 329 332 328 320 321 315 307 321 147 264 278 341 169 323 316 283 177 164 138 102 113 22 351 329 252 201 198 200 229 154 210 151 203 217 125 165 217 213 200 188 183 181
329 323 325 330 333 331 326 316 312 283 273 250 257 280 107 341 299 308 275 254 172 161 132 78 43 1 287 281 192 200 220 198 214 141 227 206 236 127 199 239 219 209 202 190 196
328 327 327 330 335 336 334 307 330 160 16 342 320 308 329 332 184 306 339 209 186 193 122 129 138 207 195 294 307 319 277 221 33 43 286 230 246 245 177 227 236 224 210 203 197
327 327 327 328 331 337 344 52 32 326 314 319 326 288 296 311 312 44 335 229 183 178 161 155 240 187 106 280 287 292 339 144 110 33 285 265 261 248 246 238 243 237 223 218 199
325 325 327 328 323 310 47 32 318 288 273 338 340 329 328 322 7 10 327 326 217 195 180 269 330 150 142 260 268 279 304 36 25 20 199 299 266 242 233 241 239 240 257 258 233
306 320 330 328 275 350 70 351 319 281 300 5 7 20 323 311 50 337 0 328 209 191 145 242 185 190 169 175 246 277 347 323 307 325 281 322 278 205 218 230 226 239 239 243 231
267 320 339 5 327 335 345 324 305 236 237 353 357 318 318 12 320 43 326 297 292 145 220 127 189 170 166 219 165 218 336 12 348 295 307 223 256 252 128 243 242 246 329 323 330
286 51 332 219 263 13 320 303 242 250 58 360 351 343 359 359 6 298 354 1 324 262 294 72 11 215 75 162 208 150 156 341 330 310 261 239 240 260 241 24 17 29 31 13 343
173 94 37 331 346 333 319 249 264 289 349 355 345 336 342 337 8 322 18 64 324 197 191 162 138 153 219 136 145 227 134 79 198 199 256 76 230 263 324 353 335 306 315 334 11
124 135 69 54 332 329 288 358 244 75 273 343 328 308 54 337 16 332 86 77 261 310 200 203 180 180 150 274 203 203 156 158 250 223 257 135 236 144 359 333 313 291 292 309 293
160 113 113 23 343 312 276 240 36 155 343 347 286 359 23 88 315 74 320 20 7 290 336 250 168 155 58 331 297 161 198 111 78 91 280 234 247 257 263 102 86 0 340 310 234
189 178 90 347 339 271 68 117 183 140 298 319 324 329 46 30 317 57 27 5 334 353 323 8 271 67 92 97 70 272 136 98 93 248 238 247 268 257 174 45 24 6 346 327 276
214 168 46 348 270 57 122 109 213 226 206 301 80 300 28 15 62 63 22 99 358 338 311 342 305 113 177 202 195 149 183 175 152 236 290 300 260 70 64 33 356 353 346 335 304
179 114 25 311 77 31 136 167 278 180 185 262 304 325 333 3 35 95 55 46 40 352 63 1 333 236 198 45 343 310 227 193 212 197 238 339 268 85 84 67 25 6 5 355 322
118 111 96 288 169 153 121 188 269 207 176 185 225 259 343 3 62 32 61 42 17 17 43 88 76 183 215 285 207 232 210 202 111 257 210 241 246 75 92 28 357 349 354 327 323
145 143 30 56 347 147 155 165 193 237 258 270 258 251 251 192 29 60 61 46 0 12 15 286 344 68 25 28 17 323 267 246 224 245 254 233 273 293 314 326 324 334 334 318 295
359 166 225 169 201 192 177 158 165 198 238 285 228 232 226 260 218 242 259 350 87 55 34 348 17 350 312 305 245 255 244 258 272 245 259 290 298 299 302 301 319 320 311 284 274
145 157 223 139 143 159 172 199 198 190 170 198 233 189 220 231 232 229 208 221 343 74 22 35 74 2 276 357 324 285 277 261 245 238 253 261 266 275 278 319 309 313 307 301 299
140 61 214 154 161 164 204 184 202 184 198 230 210 206 220 247 277 291 308 294 304 303 37 25 121 355 59 351 308 259 243 243 251 241 245 257 275 336 340 320 298 305 300 296 308